Powrót do katalogu

KINEIS-1D

AktywnyŁącznośćSSO
NORAD 60082·PAYLOAD·🇫🇷 France

Wystrzelony Jun 20, 2024 z Rocket Lab Launch Complex 1

Loading…

Następne Przeloty (najbliższe 24 godziny)

TLE

ŚwieżeSource: Space-Track

Epoka: Sep 14, 2026, 12:08 UTC

1 60082U 24114D   26257.50616565  .00000399  00000-0  64741-4 0  9991
2 60082  97.9874 276.6730 0000132 143.4573 216.6645 14.76421704120308

Śledź KINEIS-1D w czasie rzeczywistym z AllMySat

Download on the App Store